Location: B?dimalle
(17.1788°N, 80.5377°E)
Time: 08:56:00
(UTC+00:00)

Vanguard 2 Rocket - All Passes

Search period start: 16 February 2026 00:00
Search period end: 26 February 2026 00:00
Orbit: 553 x 3286 km, 32.9° (Epoch: 15 February)

Date Brightness Start Highest point End Pass type
(mag) Time Alt. Az. Time Alt. Az. Time Alt. Az.
16 Feb - 02:36:30 10° S 02:50:38 27° SE 03:05:37 10° E daylight
16 Feb - 04:48:43 10° SW 05:08:26 67° SE 05:25:23 10° ENE daylight
16 Feb - 07:06:47 10° WSW 07:26:33 66° NNW 07:39:57 10° NE daylight
16 Feb - 09:29:49 10° WNW 09:44:15 38° NNW 09:53:12 10° NE daylight
16 Feb - 11:51:28 10° NW 12:00:55 33° N 12:06:44 10° ENE daylight
16 Feb - 14:08:13 10° WNW 14:15:10 86° NNE 14:19:36 10° ESE visible
17 Feb - 01:33:47 10° S 01:43:07 16° SE 01:53:25 10° ESE daylight
17 Feb - 03:42:35 10° SSW 04:00:34 51° SE 04:18:17 10° ENE daylight
17 Feb - 05:58:15 10° WSW 06:18:44 82° NNW 06:34:24 10° ENE daylight
17 Feb - 08:19:37 10° W 08:37:00 46° NNW 08:48:10 10° NE daylight
17 Feb - 10:42:49 10° WNW 10:54:34 34° N 11:01:46 10° ENE daylight
17 Feb - 13:01:28 10° NW 13:10:05 54° NNE 13:15:11 10° E visible
17 Feb - 15:18:01 10° W 15:22:27 24° SW 15:25:55 10° SSE visible
18 Feb - 02:37:32 10° SSW 02:52:56 36° SE 03:09:52 10° E daylight
18 Feb - 04:50:48 10° SW 05:10:42 81° SSE 05:28:16 10° ENE daylight
18 Feb - 07:09:51 10° W 07:29:18 57° NNW 07:42:52 10° NE daylight
18 Feb - 09:33:10 10° WNW 09:47:39 37° N 09:56:40 10° ENE daylight
18 Feb - 11:54:01 10° NW 12:04:23 42° NNE 12:10:28 10° E daylight
18 Feb - 14:11:01 10° WNW 14:18:04 57° SW 14:22:33 10° SE visible
19 Feb - 01:33:47 10° S 01:45:38 23° SE 01:59:25 10° E daylight
19 Feb - 03:44:24 10° SW 04:02:43 63° SE 04:21:22 10° ENE daylight
19 Feb - 06:00:59 10° WSW 06:21:15 70° NNW 06:37:11 10° ENE daylight
19 Feb - 08:23:03 10° W 08:40:12 43° NNW 08:51:23 10° ENE daylight
19 Feb - 10:45:39 10° WNW 10:58:05 39° N 11:05:29 10° ENE daylight
19 Feb - 13:03:59 10° WNW 13:13:13 80° NNE 13:18:31 10° ESE visible
19 Feb - 15:22:22 10° WSW 15:25:01 14° SW 15:27:19 10° SSW visible
20 Feb - 00:33:12 10° SSE 00:38:37 12° SE 00:44:35 10° ESE visible
20 Feb - 02:39:02 10° SSW 02:55:03 46° SE 03:13:25 10° ENE daylight
20 Feb - 04:53:14 10° WSW 05:13:01 86° NNW 05:31:01 10° ENE daylight
20 Feb - 07:13:08 10° W 07:32:15 51° NNW 07:45:52 10° NE daylight
20 Feb - 09:36:20 10° WNW 09:51:08 39° N 10:00:15 10° ENE daylight
20 Feb - 11:56:28 10° NW 12:07:43 56° NNE 12:14:02 10° E daylight
20 Feb - 14:14:07 10° WNW 14:20:43 34° SW 14:25:06 10° SSE visible
21 Feb - 01:34:44 10° SSW 01:47:51 32° SE 02:03:58 10° E daylight
21 Feb - 03:46:33 10° SW 04:04:51 77° SE 04:24:11 10° ENE daylight
21 Feb - 06:04:00 10° W 06:23:56 61° NNW 06:40:01 10° NE daylight
21 Feb - 08:26:26 10° WNW 08:43:33 42° N 08:54:47 10° ENE daylight
21 Feb - 10:48:14 10° WNW 11:01:31 47° NNE 11:09:10 10° E daylight
21 Feb - 13:06:36 10° WNW 13:16:06 69° SW 13:21:32 10° SE visible
22 Feb - 00:32:03 10° S 00:41:06 19° SE 00:52:06 10° E visible
22 Feb - 02:40:53 10° SW 02:57:05 58° SE 03:16:30 10° ENE daylight
22 Feb - 04:55:57 10° WSW 05:15:27 74° NNW 05:33:42 10° ENE daylight
22 Feb - 07:16:32 10° W 07:35:24 47° NNW 07:49:01 10° ENE daylight
22 Feb - 09:39:14 10° WNW 09:54:36 43° N 10:03:55 10° ENE daylight
22 Feb - 11:58:52 10° WNW 12:10:50 77° NNE 12:17:22 10° ESE daylight
22 Feb - 14:17:45 10° W 14:23:10 21° SW 14:27:07 10° S visible
23 Feb - 01:36:13 10° SSW 01:49:53 41° SE 02:07:40 10° ENE daylight
23 Feb - 03:49:00 10° WSW 04:07:05 90° SSE 04:26:50 10° ENE daylight
23 Feb - 06:07:15 10° W 06:26:50 55° NNW 06:42:55 10° ENE daylight
23 Feb - 08:29:40 10° WNW 08:46:58 43° N 08:58:19 10° ENE daylight
23 Feb - 10:50:40 10° WNW 11:04:49 58° NNE 11:12:42 10° E daylight
23 Feb - 13:09:25 10° WNW 13:18:43 46° SW 13:24:14 10° SSE visible
24 Feb - 00:32:43 10° S 00:43:17 26° SE 00:57:12 10° E visible
24 Feb - 02:43:05 10° SW 02:59:09 72° SE 03:19:16 10° ENE daylight
24 Feb - 04:58:58 10° WSW 05:18:06 65° NNW 05:36:24 10° ENE daylight
24 Feb - 07:19:57 10° WNW 07:38:41 45° N 07:52:20 10° ENE daylight
24 Feb - 09:41:54 10° WNW 09:58:00 50° NNE 10:07:33 10° E daylight
24 Feb - 12:01:19 10° WNW 12:13:41 79° SW 12:20:26 10° SE daylight
24 Feb - 14:22:33 10° WSW 14:25:31 13° SW 14:28:02 10° SSW visible
24 Feb - 23:31:44 10° SSE 23:37:07 13° SE 23:43:26 10° ESE visible
25 Feb - 01:38:06 10° SSW 01:51:52 53° SE 02:10:48 10° ENE daylight
25 Feb - 03:51:45 10° WSW 04:09:30 78° NNW 04:29:24 10° ENE daylight
25 Feb - 06:10:40 10° W 06:29:55 50° NNW 06:45:58 10° ENE daylight
25 Feb - 08:32:40 10° WNW 08:50:24 46° N 09:01:55 10° ENE daylight
25 Feb - 10:53:01 10° WNW 11:07:53 75° NNE 11:16:02 10° ESE daylight
25 Feb - 13:12:36 10° WNW 13:21:06 30° SW 13:26:31 10° SSE visible
